Diretta Meteo Olbia-Costa Smeralda, Italiasabato 21 luglio ore 12:50

Mappa
Sereno 33 °C Sereno 24 Ore: T.min 22 T.max 33
Ponente Nord-Est Km/h 11.1 Punto di rugiada: 22 °C Umidità: 52% Visibilità: 10 Km
Il sole sorge alle: 06:06 Il sole tramonta alle: 20:49
21 Luglio 2018 12:50 tempo osservato: Sereno Sereno 33 52 1009 vento: Nord NE 11.1
21 Luglio 2018 12:20 tempo osservato: Poco Nuvoloso Poco Nuvoloso 33 52 1008 vento: Nord NE 16.7
21 Luglio 2018 11:50 tempo osservato: Poco Nuvoloso Poco Nuvoloso 32 55 1009 vento: Nord NE 11.1
21 Luglio 2018 11:20 tempo osservato: Poco Nuvoloso Poco Nuvoloso 32 55 1009 vento: Nord N 11.1
21 Luglio 2018 10:50 tempo osservato: Nuvoloso Nuvoloso 31 52 1009 vento: Nord E/NE 16.7
21 Luglio 2018 10:20 tempo osservato: Nuvoloso Nuvoloso 31 52 1010 vento: Nord E 14.8
21 Luglio 2018 09:50 tempo osservato: Nuvoloso Nuvoloso 30 55 1009 vento: Nord E 9.3
21 Luglio 2018 09:20 tempo osservato: Poco Nuvoloso Poco Nuvoloso 29 51 1010 vento: Nord N 3.7
21 Luglio 2018 08:50 tempo osservato: Poco Nuvoloso Poco Nuvoloso 27 54 1011 vento: Nord N 5.5
21 Luglio 2018 08:20 tempo osservato: Poco Nuvoloso Poco Nuvoloso 26 61 1011 vento: Nord N 1.8
21 Luglio 2018 07:20 tempo osservato: Poco Nuvoloso Poco Nuvoloso 22 88 1010 vento: Nord N 5.5
21 Luglio 2018 04:20 tempo osservato: Sereno Sereno 23 83 1010 vento: Nord N 5.5
21 Luglio 2018 03:50 tempo osservato: Sereno Sereno 23 88 1011 vento: Nord S 7.4
21 Luglio 2018 03:20 tempo osservato: Sereno Sereno 23 88 1011 vento: Nord SO 7.4
21 Luglio 2018 02:50 tempo osservato: Sereno Sereno 24 83 1011 vento: Nord NO 7.4
21 Luglio 2018 02:20 tempo osservato: Sereno Sereno 24 83 1011 vento: Nord N 5.5
21 Luglio 2018 01:50 tempo osservato: Sereno Sereno 24 83 1011 vento: Nord S/SE 7.4
21 Luglio 2018 01:20 tempo osservato: Sereno Sereno 24 83 1012 vento: Nord N 1.8
21 Luglio 2018 00:50 tempo osservato: Sereno Sereno 24 83 1011 vento: Nord N 5.5
21 Luglio 2018 00:20 tempo osservato: Sereno Sereno 24 83 1011 vento: Nord N 1.8
20 Luglio 2018 23:50 tempo osservato: Sereno Sereno 24 83 1011 vento: Nord N 5.5
20 Luglio 2018 23:20 tempo osservato: Sereno Sereno 25 78 1012 vento: Nord N 5.5
20 Luglio 2018 22:50 tempo osservato: Sereno Sereno 25 83 1012 vento: Nord N 3.7
20 Luglio 2018 22:20 tempo osservato: Sereno Sereno 26 78 1012 vento: Nord O/NO 7.4
20 Luglio 2018 21:50 tempo osservato: Sereno Sereno 26 73 1012 vento: Nord N 3.7
20 Luglio 2018 21:20 tempo osservato: Sereno Sereno 27 69 1012 vento: Nord N 1.8
20 Luglio 2018 20:50 tempo osservato: Sereno Sereno 27 69 1012 vento: Nord N 5.5
20 Luglio 2018 20:20 tempo osservato: Sereno Sereno 28 65 1012 vento: Nord E 9.3
20 Luglio 2018 19:50 tempo osservato: Sereno Sereno 29 66 1012 vento: Nord E 13
20 Luglio 2018 19:20 tempo osservato: Sereno Sereno 29 66 1012 vento: Nord E 16.7
20 Luglio 2018 18:50 tempo osservato: Sereno Sereno 30 62 1012 vento: Nord E 18.5
20 Luglio 2018 18:20 tempo osservato: Sereno Sereno 31 55 1013 vento: Nord E 16.7
20 Luglio 2018 17:50 tempo osservato: Sereno Sereno 31 55 1013 vento: Nord E 16.7
20 Luglio 2018 17:20 tempo osservato: Sereno Sereno 32 46 1013 vento: Nord E 18.5
20 Luglio 2018 16:50 tempo osservato: Sereno Sereno 32 46 1013 vento: Nord E 18.5
20 Luglio 2018 16:20 tempo osservato: Sereno Sereno 32 46 1013 vento: Nord E/NE 18.5
20 Luglio 2018 15:50 tempo osservato: Sereno Sereno 32 46 1014 vento: Nord E 18.5
20 Luglio 2018 15:20 tempo osservato: Sereno Sereno 31 48 1014 vento: Nord E/NE 20.3
20 Luglio 2018 14:50 tempo osservato: Sereno Sereno 32 43 1014 vento: Nord E/NE 22.2
20 Luglio 2018 14:20 tempo osservato: Sereno Sereno 31 45 1014 vento: Nord E/NE 22.2
20 Luglio 2018 13:50 tempo osservato: Sereno Sereno 31 43 1014 vento: Nord NE 25.9